Скво-Хилл

США     39°20′27″N   122°41′06″W
темп.,
°C
ветер,
м/с
пор.,
м/с
влажн.,
%
обл.,
%
осадки,
мм/ч
давл.,
гПа
погр.,
м
19 апреля, пн
пн1923:00+13сз355169 0.0 102069
02:00+12сз3345100 0.0 101944
05:00+12с224059 0.0 101813
08:00+16ссв114061 0.0 101865
11:00+23ююз22265 0.0 10171455
14:00+25зюз33207 0.0 10162139
17:00+23з232528 0.0 10141565
20:00+12зсз35575 0.0 101694
20 апреля, вт
вт2023:00+9сз476281 0.0 1016123
02:00+9сз3646100 0.0 101587
05:00+8ссз2236100 0.0 101424
08:00+12сз11371 0.0 1013113
11:00+18ю12300 0.0 10111609
14:00+20вюв123183 0.0 10092465
17:00+10ссз3485100 3.4 1011211
20:00+8сз358942 0.5 101185
21 апреля, ср
ср2123:00+8с33811 0.5 101138
02:00+7с34650 0.0 101156
05:00+8с33480 0.0 101143
08:00+13ссв23340 0.0 1011131
11:00+20ссв24160 0.0 10101766
14:00+22всв23140 0.0 10082885
17:00+21ссз122039 0.0 10072911
20:00+13ссз22390 0.0 100916
22 апреля, чт
чт2223:00+12с35350 0.0 101081
02:00+12с33340 0.0 101142
05:00+11с22345 0.0 101120
08:00+16ссз113193 0.0 101158
11:00+22зюз231718 0.0 10101977
14:00+24з44170 0.0 10092557
17:00+22зюз34235 0.0 10081812
20:00+13з22599 0.0 101029
23 апреля, пт
пт2323:00+11сз336598 0.0 101156
02:00+12с114945 0.0 101111
05:00+10ссв115431 0.0 101111
08:00+14всв22480 0.0 1012157
11:00+20юв21315 0.0 10111168
14:00+23ююз33275 0.0 10102087
17:00+22зюз5530100 0.0 10091717
20:00+12з3357100 0.0 101151